WetterOnline ( https://www.wetteronline.de )

Wetter aktuell Wetzlar

Aktuelles Wetter: Gießen (195m)

6-stündlich | Neueste Meldungen
Ortszeit Temperatur Wetter
Di, 25.01. 1:00 3.0° C bedeckt
Mo, 24.01. 19:00 3.7° C bedeckt
Mo, 24.01. 13:00 4.2° C bedeckt
Mo, 24.01. 7:00 3.5° C bedeckt
Mo, 24.01. 1:00 4.4° C bedeckt
So, 23.01. 19:00 4.3° C bedeckt
So, 23.01. 13:00 5.3° C bedeckt
So, 23.01. 7:00 4.1° C bedeckt
Ortszeit Temperatur Wetter
Di, 25.01. 6:00 2.2° C bedeckt
Di, 25.01. 5:30 2.3° C bedeckt
Di, 25.01. 5:00 2.4° C bedeckt
Di, 25.01. 4:30 2.4° C bedeckt
Di, 25.01. 4:00 2.5° C bedeckt
Di, 25.01. 3:30 2.6° C bedeckt
Di, 25.01. 3:00 2.6° C bedeckt
Ortszeit Relative Feuchte Sichtweite
Di, 25.01. 1:00 86% 25 km
Mo, 24.01. 19:00 83% 45 km
Mo, 24.01. 13:00 78% 50 km
Mo, 24.01. 7:00 84% 65 km
Mo, 24.01. 1:00 81% >70 km
So, 23.01. 19:00 79% 55 km
So, 23.01. 13:00 79% 30 km
So, 23.01. 7:00 83% 30 km
Ortszeit Relative Feuchte Sichtweite
Di, 25.01. 6:00 90% 17 km
Di, 25.01. 5:30 90% 16 km
Di, 25.01. 5:00 89% 17 km
Di, 25.01. 4:30 87% 22 km
Di, 25.01. 4:00 89% 24 km
Di, 25.01. 3:30 87% 27 km
Di, 25.01. 3:00 86% 28 km
Ortszeit Niederschlagsmenge Niederschlagsart
Di, 25.01. 1:00 0.0 l/m2 in 6 Std. -
Mo, 24.01. 19:00 0.0 l/m2 in 12 Std. -
Mo, 24.01. 13:00 0.0 l/m2 in 6 Std. -
Mo, 24.01. 7:00 0.0 l/m2 in 12 Std. -
Mo, 24.01. 1:00 0.0 l/m2 in 6 Std. -
So, 23.01. 19:00 0.1 l/m2 in 12 Std. -
So, 23.01. 13:00 0.1 l/m2 in 6 Std. Sprühregen
So, 23.01. 7:00 0.1 l/m2 in 12 Std. Regen
Ortszeit Niederschlagsmenge Niederschlagsart
Di, 25.01. 6:00 0.0 l/m2 in 1 Std. -
Di, 25.01. 5:30 0.0 l/m2 in 1 Std. -
Di, 25.01. 5:00 0.0 l/m2 in 1 Std. -
Di, 25.01. 4:30 0.0 l/m2 in 1 Std. -
Di, 25.01. 4:00 0.0 l/m2 in 1 Std. -
Di, 25.01. 3:30 0.0 l/m2 in 1 Std. -
Di, 25.01. 3:00 0.0 l/m2 in 1 Std. -
Ortszeit Stärke Spitze Richtung
km/h Bft. km/h Grad Sektor
Di, 25.01. 1:00 4 1 18 160° S
Mo, 24.01. 19:00 7 2 22 160° S
Mo, 24.01. 13:00 11 2 18 130° SO
Mo, 24.01. 7:00 9 2 19 130° SO
Mo, 24.01. 1:00 7 2 13 100° O
So, 23.01. 19:00 4 1 14 50° NO
So, 23.01. 13:00 4 1 14 90° O
So, 23.01. 7:00 7 2 14 310° NW
Ortszeit Stärke Spitze Richtung
km/h Bft. km/h Grad Sektor
Di, 25.01. 6:00 4 1 11 200° S
Di, 25.01. 5:30 6 1 9 200° S
Di, 25.01. 5:00 4 1 7 190° S
Di, 25.01. 4:30 2 1 2 250° W
Di, 25.01. 4:00 0 0 7 - -
Di, 25.01. 3:30 4 1 4 220° SW
Di, 25.01. 3:00 4 1 11 240° SW
Ortszeit Untergrenze Bedeckung Gattung
total tief tief mittel hoch
Di, 25.01. 1:00 330 m 8/8 8/8 - - -
Mo, 24.01. 19:00 420 m 8/8 8/8 - - -
Mo, 24.01. 13:00 450 m 8/8 8/8 - - -
Mo, 24.01. 7:00 390 m 8/8 8/8 - - -
Mo, 24.01. 1:00 480 m 8/8 8/8 - - -
So, 23.01. 19:00 660 m 8/8 8/8 - - -
So, 23.01. 13:00 900 m 8/8 8/8 - - -
So, 23.01. 7:00 780 m 8/8 8/8 - - -
Ortszeit Bedeckungsgrad in Achtel und Wolkenuntergrenze
Di, 25.01. 6:00 8(240m)
Di, 25.01. 5:30 8(240m)
Di, 25.01. 5:00 8(240m)
Di, 25.01. 4:30 8(270m)
Di, 25.01. 4:00 8(270m)
Di, 25.01. 3:30 8(300m)
Di, 25.01. 3:00 8(270m)
Ortszeit Luftdruck NN (hPa) Tendenz (hPa in 3 Std.)
Di, 25.01. 1:00 1035 - 0,5
Mo, 24.01. 19:00 1035 0,0
Mo, 24.01. 13:00 1035 - 0,6
Mo, 24.01. 7:00 1035 - 0,4
Mo, 24.01. 1:00 1036 - 0,4
So, 23.01. 19:00 1036 + 0,2
So, 23.01. 13:00 1036 - 0,3
So, 23.01. 7:00 1035 + 0,3
Ortszeit Luftdruck NN (hPa) Tendenz (hPa in 3 Std.)
Di, 25.01. 6:00 1034 - 0,5
Di, 25.01. 5:30 1034 - 0,7
Di, 25.01. 5:00 1034 - 0,8
Di, 25.01. 4:30 1034 - 0,7
Di, 25.01. 4:00 1034 - 0,3
Di, 25.01. 3:30 1035 - 0,3
Di, 25.01. 3:00 1035 - 0,2
Ortszeit Schneehöhe (cm)
Di, 25.01. 1:00 0
Mo, 24.01. 19:00 0
Mo, 24.01. 13:00 0
Mo, 24.01. 7:00 0
Mo, 24.01. 1:00 0
So, 23.01. 19:00 0
So, 23.01. 13:00 0
So, 23.01. 7:00 0
Ortszeit Schneehöhe (cm)
Di, 25.01. 6:00 0
Di, 25.01. 5:30 0
Di, 25.01. 5:00 0
Di, 25.01. 4:30 0
Di, 25.01. 4:00 0
Di, 25.01. 3:30 0
Di, 25.01. 3:00 0
Link zu dieser Seite / Seite empfehlen

Das Wetter in ...